Location: Clanezzo
(45.7500°N, 9.6000°E)
Time: 10:25:14
(UTC+00:00)

Tiangong - Visible Passes

Search period start: 20 January 2022 00:00
Search period end: 30 January 2022 00:00
Orbit: 383 x 386 km, 41.5° (Epoch: 19 January)

Date Brightness Start Highest point End Pass type
(mag) Time Alt. Az. Time Alt. Az. Time Alt. Az.
27 Jan 3.5 18:23:38 10° SSW 18:24:42 15° S 18:24:42 15° S visible
28 Jan 3.5 17:24:47 10° S 17:26:21 13° SSE 17:27:52 10° SE visible
28 Jan 4.3 18:59:46 10° SW 19:00:05 12° SW 19:00:05 12° SW visible
29 Jan 2.5 18:00:14 10° SW 18:02:55 25° SSE 18:03:11 25° SSE visible
